| time (UTC) | temp F | wind direction | speed knots | gust knots | rain 1hr in | rain 24hr in | rain mn in | humidity % | barometer mb |
| 20260503021429 | 49 | 344 | 0.0 | 0.0 | 0.00 | 0.00 | 0.00 | 53 | 1013.6 |
| 20260503020427 | 50 | 344 | 0.9 | 1.7 | 0.00 | 0.00 | 0.00 | 52 | 1013.4 |
| 20260503015956 | 50 | 344 | 0.9 | 2.6 | 0.00 | 0.00 | 0.00 | 52 | 1013.5 |
| 20260503015513 | 50 | 324 | 0.9 | 4.3 | 0.00 | 0.00 | 0.00 | 52 | 1013.5 |
| 20260503014442 | 50 | 317 | 1.7 | 4.3 | 0.00 | 0.00 | 0.00 | 51 | 1013.3 |
| 20260503014001 | 50 | 318 | 1.7 | 4.3 | 0.00 | 0.00 | 0.00 | 51 | 1013.3 |
| 20260503013518 | 51 | 325 | 1.7 | 2.6 | 0.00 | 0.00 | 0.00 | 51 | 1013.2 |
| 20260503013033 | 51 | 311 | 1.7 | 2.6 | 0.00 | 0.00 | 0.00 | 51 | 1013.1 |
| 20260503012558 | 51 | 279 | 0.9 | 2.6 | 0.00 | 0.00 | 0.00 | 50 | 1013.1 |
| 20260503010854 | 52 | 282 | 0.9 | 3.5 | 0.00 | 0.00 | 0.00 | 50 | 1013.1 |
| 20260503010817 | 58 | 302 | 3.5 | 11.3 | 0.00 | 0.00 | 0.00 | 40 | 1011.1 |
| 20260503010709 | 58 | 29 | 3.5 | 8.7 | 0.00 | 0.00 | 0.00 | 41 | 1011.0 |
| 20260503010611 | 59 | 313 | 5.2 | 12.2 | 0.00 | 0.00 | 0.00 | 39 | 1011.2 |
| 20260503010540 | 60 | 337 | 5.2 | 13.9 | 0.00 | 0.00 | 0.00 | 41 | 1011.0 |
| 20260503010436 | 60 | 315 | 5.2 | 12.2 | 0.00 | 0.00 | 0.00 | 39 | 1010.6 |
| 20260503010351 | 52 | 315 | 0.9 | 3.5 | 0.00 | 0.00 | 0.00 | 48 | 1013.0 |
| 20260503010327 | 61 | 9 | 3.5 | 11.3 | 0.00 | 0.00 | 0.00 | 40 | 1010.3 |
| 20260503010252 | 62 | 301 | 5.2 | 13.0 | 0.00 | 0.00 | 0.00 | 37 | 1010.2 |
| 20260503010149 | 62 | 298 | 4.3 | 11.3 | 0.00 | 0.00 | 0.00 | 37 | 1010.0 |
| 20260503010026 | 62 | 307 | 4.3 | 13.0 | 0.00 | 0.00 | 0.00 | 37 | 1009.9 |
| 20260503005954 | 62 | 320 | 4.3 | 13.0 | 0.00 | 0.00 | 0.00 | 38 | 1009.8 |
| 20260503005847 | 52 | 309 | 0.9 | 4.3 | 0.00 | 0.00 | 0.00 | 48 | 1012.9 |
| 20260503005711 | 62 | 38 | 5.2 | 12.2 | 0.00 | 0.00 | 0.00 | 35 | 1009.6 |
| 20260503005401 | 52 | 314 | 1.7 | 4.3 | 0.00 | 0.00 | 0.00 | 47 | 1013.0 |
| 20260503004921 | 53 | 304 | 1.7 | 4.3 | 0.00 | 0.00 | 0.00 | 47 | 1012.9 |
| 20260503004437 | 53 | 355 | 1.7 | 4.3 | 0.00 | 0.00 | 0.00 | 47 | 1012.8 |
| 20260503003945 | 53 | 342 | 1.7 | 5.2 | 0.00 | 0.00 | 0.00 | 46 | 1012.7 |
| 20260503003506 | 53 | 323 | 1.7 | 5.2 | 0.00 | 0.00 | 0.00 | 46 | 1012.7 |
| 20260503003029 | 54 | 350 | 2.6 | 7.0 | 0.00 | 0.00 | 0.00 | 46 | 1012.7 |
| 20260503002551 | 54 | 304 | 2.6 | 7.8 | 0.00 | 0.00 | 0.00 | 46 | 1012.6 |
| 20260503002113 | 54 | 5 | 3.5 | 7.8 | 0.00 | 0.00 | 0.00 | 45 | 1012.5 |
| 20260503001635 | 54 | 15 | 3.5 | 7.0 | 0.00 | 0.00 | 0.00 | 45 | 1012.4 |
| 20260503001154 | 55 | 310 | 3.5 | 8.7 | 0.00 | 0.00 | 0.00 | 45 | 1012.3 |
| 20260503000714 | 55 | 331 | 4.3 | 13.0 | 0.00 | 0.00 | 0.00 | 44 | 1012.3 |
| 20260502235656 | 55 | 309 | 5.2 | 11.3 | 0.00 | 0.00 | 0.00 | 43 | 1011.9 |
| 20260502235219 | 56 | 322 | 4.3 | 11.3 | 0.00 | 0.00 | 0.00 | 43 | 1011.5 |
| 20260502233027 | 58 | 348 | 3.5 | 9.6 | 0.00 | 0.00 | 0.00 | 40 | 1011.4 |
| 20260502232556 | 58 | 351 | 3.5 | 11.3 | 0.00 | 0.00 | 0.00 | 40 | 1011.2 |
| 20260502231509 | 58 | 300 | 3.5 | 9.6 | 0.00 | 0.00 | 0.00 | 39 | 1011.1 |
| 20260502230444 | 58 | 313 | 4.3 | 8.7 | 0.00 | 0.00 | 0.00 | 42 | 1011.2 |
| 20260502230005 | 58 | 31 | 3.5 | 8.7 | 0.00 | 0.00 | 0.00 | 41 | 1011.1 |
| 20260502225525 | 58 | 24 | 4.3 | 11.3 | 0.00 | 0.00 | 0.00 | 41 | 1011.2 |
| 20260502225058 | 58 | 27 | 5.2 | 11.3 | 0.00 | 0.00 | 0.00 | 40 | 1011.1 |
| 20260502224615 | 58 | 341 | 6.1 | 11.3 | 0.00 | 0.00 | 0.00 | 40 | 1011.2 |
| 20260502223549 | 60 | 294 | 5.2 | 12.2 | 0.00 | 0.00 | 0.00 | 39 | 1011.1 |
| 20260502223115 | 60 | 0 | 5.2 | 11.3 | 0.00 | 0.00 | 0.00 | 39 | 1011.2 |
| 20260502222040 | 60 | 336 | 6.1 | 13.9 | 0.00 | 0.00 | 0.00 | 41 | 1010.8 |
| 20260502221602 | 59 | 337 | 5.2 | 13.9 | 0.00 | 0.00 | 0.00 | 40 | 1010.8 |
| 20260502221054 | 59 | 283 | 4.3 | 13.9 | 0.00 | 0.00 | 0.00 | 40 | 1010.7 |
| 20260502220613 | 59 | 246 | 4.3 | 12.2 | 0.00 | 0.00 | 0.00 | 40 | 1010.7 |
| 20260502215601 | 60 | 355 | 5.2 | 11.3 | 0.00 | 0.00 | 0.00 | 39 | 1010.5 |
| 20260502215116 | 60 | 14 | 5.2 | 13.9 | 0.00 | 0.00 | 0.00 | 39 | 1010.5 |
| 20260502214635 | 61 | 338 | 4.3 | 13.9 | 0.00 | 0.00 | 0.00 | 38 | 1010.4 |
| 20260502213614 | 61 | 290 | 5.2 | 11.3 | 0.00 | 0.00 | 0.00 | 40 | 1010.2 |
| 20260502212559 | 62 | 300 | 4.3 | 13.0 | 0.00 | 0.00 | 0.00 | 37 | 1010.1 |
| 20260502210355 | 62 | 333 | 5.2 | 12.2 | 0.00 | 0.00 | 0.00 | 37 | 1009.7 |
| 20260502205306 | 63 | 348 | 4.3 | 10.4 | 0.00 | 0.00 | 0.00 | 37 | 1009.5 |
| 20260502204758 | 63 | 298 | 3.5 | 9.6 | 0.00 | 0.00 | 0.00 | 36 | 1009.5 |
| 20260502204254 | 64 | 321 | 3.5 | 8.7 | 0.00 | 0.00 | 0.00 | 37 | 1009.5 |
| 20260502203750 | 64 | 312 | 4.3 | 10.4 | 0.00 | 0.00 | 0.00 | 37 | 1009.6 |
| 20260502203249 | 64 | 5 | 3.5 | 10.4 | 0.00 | 0.00 | 0.00 | 36 | 1009.6 |
| 20260502202735 | 64 | 310 | 3.5 | 9.6 | 0.00 | 0.00 | 0.00 | 35 | 1009.5 |
| 20260502202233 | 64 | 298 | 4.3 | 10.4 | 0.00 | 0.00 | 0.00 | 37 | 1009.5 |
| 20260502201727 | 63 | 295 | 6.1 | 12.2 | 0.00 | 0.00 | 0.00 | 37 | 1009.6 |
| 20260502201222 | 63 | 343 | 5.2 | 12.2 | 0.00 | 0.00 | 0.00 | 36 | 1009.7 |
| 20260502200717 | 63 | 69 | 4.3 | 10.4 | 0.00 | 0.00 | 0.00 | 37 | 1009.6 |
| 20260502200206 | 63 | 330 | 4.3 | 10.4 | 0.00 | 0.00 | 0.00 | 35 | 1009.7 |
| 20260502195706 | 64 | 306 | 4.3 | 10.4 | 0.00 | 0.00 | 0.00 | 36 | 1009.7 |
| 20260502195156 | 64 | 5 | 4.3 | 10.4 | 0.00 | 0.00 | 0.00 | 35 | 1009.7 |
| 20260502194947 | 62 | 355 | 3.5 | 9.6 | 0.00 | 0.00 | 0.00 | 40 | 1010.2 |
| 20260502194853 | 63 | 348 | 3.5 | 9.6 | 0.00 | 0.00 | 0.00 | 39 | 1010.2 |
| 20260502194652 | 64 | 69 | 4.3 | 11.3 | 0.00 | 0.00 | 0.00 | 38 | 1009.8 |
| 20260502194207 | 64 | 355 | 3.5 | 11.3 | 0.00 | 0.00 | 0.00 | 36 | 1009.9 |
| 20260502193734 | 64 | 314 | 2.6 | 7.0 | 0.00 | 0.00 | 0.00 | 39 | 1010.0 |
| 20260502193257 | 64 | 24 | 3.5 | 10.4 | 0.00 | 0.00 | 0.00 | 38 | 1010.2 |
| 20260502192709 | 64 | 294 | 3.5 | 11.3 | 0.00 | 0.00 | 0.00 | 36 | 1010.2 |
| 20260502192221 | 64 | 298 | 3.5 | 11.3 | 0.00 | 0.00 | 0.00 | 36 | 1010.2 |
| 20260502191744 | 63 | 342 | 3.5 | 8.7 | 0.00 | 0.00 | 0.00 | 36 | 1010.3 |
| 20260502191311 | 63 | 40 | 3.5 | 8.7 | 0.00 | 0.00 | 0.00 | 40 | 1010.3 |
| 20260502185649 | 62 | 333 | 2.6 | 10.4 | 0.00 | 0.00 | 0.00 | 40 | 1010.4 |
| 20260502185513 | 62 | 11 | 4.3 | 10.4 | 0.00 | 0.00 | 0.00 | 38 | 1010.4 |
| 20260502185201 | 62 | 92 | 3.5 | 10.4 | 0.00 | 0.00 | 0.00 | 42 | 1010.3 |
| 20260502184724 | 62 | 67 | 5.2 | 10.4 | 0.00 | 0.00 | 0.00 | 42 | 1010.4 |
| 20260502183647 | 62 | 47 | 2.6 | 10.4 | 0.00 | 0.00 | 0.00 | 41 | 1010.4 |
| 20260502183150 | 62 | 319 | 2.6 | 7.0 | 0.00 | 0.00 | 0.00 | 37 | 1010.5 |
| 20260502182942 | 62 | 293 | 2.6 | 7.8 | 0.00 | 0.00 | 0.00 | 42 | 1010.6 |
| 20260502182148 | 61 | 335 | 3.5 | 10.4 | 0.00 | 0.00 | 0.00 | 44 | 1010.7 |
| 20260502181701 | 60 | 14 | 4.3 | 11.3 | 0.00 | 0.00 | 0.00 | 41 | 1010.8 |
| 20260502181150 | 60 | 332 | 4.3 | 11.3 | 0.00 | 0.00 | 0.00 | 43 | 1011.0 |
| 20260502180648 | 60 | 41 | 4.3 | 12.2 | 0.00 | 0.00 | 0.00 | 39 | 1011.1 |
| 20260502180153 | 61 | 334 | 3.5 | 12.2 | 0.00 | 0.00 | 0.00 | 42 | 1011.2 |
| 20260502170227 | 57 | 38 | 1.7 | 5.2 | 0.00 | 0.00 | 0.00 | 43 | 1012.0 |
| 20260502163650 | 56 | 48 | 2.6 | 7.8 | 0.00 | 0.00 | 0.00 | 46 | 1012.6 |
| 20260502163156 | 56 | 5 | 2.6 | 7.0 | 0.00 | 0.00 | 0.00 | 46 | 1012.7 |
| 20260502162648 | 56 | 38 | 3.5 | 10.4 | 0.00 | 0.00 | 0.00 | 45 | 1012.9 |
| 20260502162309 | 54 | 308 | 3.5 | 8.7 | 0.00 | 0.00 | 0.00 | 50 | 1012.9 |
| 20260502162154 | 56 | 355 | 4.3 | 10.4 | 0.00 | 0.00 | 0.00 | 48 | 1013.0 |
| 20260502161704 | 56 | 61 | 3.5 | 8.7 | 0.00 | 0.00 | 0.00 | 48 | 1012.9 |
| 20260502161224 | 55 | 19 | 2.6 | 7.0 | 0.00 | 0.00 | 0.00 | 51 | 1012.9 |
| 20260502160145 | 54 | 69 | 3.5 | 8.7 | 0.00 | 0.00 | 0.00 | 48 | 1013.0 |
| 20260502152112 | 53 | 307 | 1.7 | 5.2 | 0.00 | 0.00 | 0.00 | 51 | 1013.4 |
| 20260502151957 | 51 | 323 | 3.5 | 9.6 | 0.00 | 0.00 | 0.00 | 52 | 1013.2 |
| 20260502151859 | 51 | 32 | 3.5 | 7.8 | 0.00 | 0.00 | 0.00 | 52 | 1013.0 |
| 20260502151627 | 52 | 5 | 2.6 | 7.8 | 0.00 | 0.00 | 0.00 | 51 | 1013.3 |
| 20260502151142 | 52 | 297 | 3.5 | 7.8 | 0.00 | 0.00 | 0.00 | 51 | 1013.3 |
| 20260502150708 | 52 | 321 | 3.5 | 9.6 | 0.00 | 0.00 | 0.00 | 53 | 1013.2 |
| 20260502130549 | 51 | 0 | 1.7 | 3.5 | 0.00 | 0.00 | 0.00 | 57 | 1013.0 |
| 20260502130108 | 51 | 298 | 1.7 | 3.5 | 0.00 | 0.00 | 0.00 | 56 | 1013.0 |
| 20260502123421 | 50 | 300 | 0.9 | 3.5 | 0.00 | 0.00 | 0.00 | 58 | 1012.5 |
| 20260502122916 | 50 | 311 | 1.7 | 6.1 | 0.00 | 0.00 | 0.00 | 57 | 1012.3 |
| 20260502122418 | 50 | 5 | 2.6 | 7.8 | 0.00 | 0.00 | 0.00 | 56 | 1012.4 |
| 20260502121907 | 50 | 0 | 2.6 | 7.8 | 0.00 | 0.00 | 0.00 | 58 | 1012.3 |
| 20260502121402 | 50 | 29 | 2.6 | 6.1 | 0.00 | 0.00 | 0.00 | 56 | 1012.3 |
| 20260502120856 | 50 | 50 | 3.5 | 7.8 | 0.00 | 0.00 | 0.00 | 58 | 1012.2 |
| 20260502120350 | 50 | 28 | 2.6 | 7.8 | 0.00 | 0.00 | 0.00 | 56 | 1012.5 |
| 20260502120158 | 50 | 0 | 4.3 | 9.6 | 0.00 | 0.00 | 0.00 | 56 | 1012.4 |
| 20260502115900 | 50 | 38 | 2.6 | 4.3 | 0.00 | 0.00 | 0.00 | 57 | 1012.6 |
| 20260502115415 | 50 | 47 | 3.5 | 7.8 | 0.00 | 0.00 | 0.00 | 56 | 1012.4 |
| 20260502114606 | 50 | 350 | 4.3 | 9.6 | 0.00 | 0.00 | 0.00 | 55 | 1012.3 |
| 20260502113816 | 50 | 31 | 3.5 | 9.6 | 0.00 | 0.00 | 0.00 | 56 | 1012.3 |
| 20260502113314 | 50 | 11 | 2.6 | 8.7 | 0.00 | 0.00 | 0.00 | 57 | 1012.2 |
| 20260502112803 | 50 | 317 | 1.7 | 5.2 | 0.00 | 0.00 | 0.00 | 56 | 1012.2 |
| 20260502112258 | 50 | 336 | 2.6 | 6.1 | 0.00 | 0.00 | 0.00 | 57 | 1012.2 |
| 20260502111758 | 50 | 345 | 2.6 | 7.8 | 0.00 | 0.00 | 0.00 | 56 | 1012.1 |
| 20260502111245 | 50 | 317 | 2.6 | 9.6 | 0.00 | 0.00 | 0.00 | 55 | 1011.9 |
| 20260502110742 | 50 | 330 | 3.5 | 9.6 | 0.00 | 0.00 | 0.00 | 56 | 1011.9 |
| 20260502110240 | 50 | 15 | 2.6 | 8.7 | 0.00 | 0.00 | 0.00 | 57 | 1011.8 |
| 20260502105735 | 50 | 344 | 0.9 | 7.8 | 0.00 | 0.00 | 0.00 | 59 | 1011.9 |
| 20260502105224 | 51 | 26 | 1.7 | 6.1 | 0.00 | 0.00 | 0.00 | 58 | 1011.7 |
| 20260502105134 | 51 | 301 | 4.3 | 12.2 | 0.00 | 0.00 | 0.00 | 61 | 1011.8 |
| 20260502105103 | 51 | 333 | 5.2 | 12.2 | 0.00 | 0.00 | 0.00 | 60 | 1011.7 |
| 20260502104742 | 51 | 0 | 2.6 | 6.1 | 0.00 | 0.00 | 0.00 | 59 | 1011.9 |
| 20260502104313 | 51 | 355 | 2.6 | 7.8 | 0.00 | 0.00 | 0.00 | 59 | 1011.6 |
| 20260502103918 | 51 | 303 | 4.3 | 12.2 | 0.00 | 0.00 | 0.00 | 61 | 1011.8 |
| 20260502103845 | 51 | 355 | 6.1 | 14.8 | 0.00 | 0.00 | 0.00 | 63 | 1011.8 |
| 20260502103729 | 51 | 347 | 4.3 | 13.9 | 0.00 | 0.00 | 0.00 | 59 | 1011.8 |
| 20260502103257 | 51 | 19 | 4.3 | 13.9 | 0.00 | 0.00 | 0.00 | 59 | 1011.6 |
| 20260502102828 | 51 | 10 | 4.3 | 11.3 | 0.00 | 0.00 | 0.00 | 60 | 1011.7 |
| 20260502100758 | 51 | 34 | 5.2 | 14.8 | 0.00 | 0.00 | 0.00 | 63 | 1011.9 |
| 20260502091306 | 52 | 283 | 3.5 | 11.3 | 0.00 | 0.00 | 0.00 | 68 | 1012.0 |
| 20260502090826 | 52 | 335 | 4.3 | 11.3 | 0.00 | 0.00 | 0.00 | 68 | 1012.0 |
| 20260502070153 | 53 | 351 | 4.3 | 11.3 | 0.00 | 0.00 | 0.00 | 67 | 1010.8 |
| 20260502065652 | 53 | 315 | 5.2 | 11.3 | 0.00 | 0.00 | 0.00 | 67 | 1011.1 |
| 20260502065150 | 53 | 26 | 5.2 | 11.3 | 0.00 | 0.00 | 0.00 | 67 | 1011.2 |
| 20260502064651 | 53 | 314 | 4.3 | 9.6 | 0.00 | 0.00 | 0.00 | 68 | 1011.3 |
| 20260502064158 | 53 | 350 | 3.5 | 9.6 | 0.00 | 0.00 | 0.00 | 69 | 1011.4 |
| 20260502063650 | 53 | 344 | 3.5 | 10.4 | 0.00 | 0.00 | 0.00 | 69 | 1011.3 |
| 20260502063148 | 53 | 283 | 2.6 | 10.4 | 0.00 | 0.00 | 0.00 | 69 | 1011.5 |
| 20260502062639 | 54 | 42 | 1.7 | 4.3 | 0.00 | 0.00 | 0.00 | 70 | 1011.6 |
| 20260502062137 | 54 | 355 | 1.7 | 4.3 | 0.00 | 0.00 | 0.00 | 69 | 1011.6 |
| 20260502061713 | 52 | 327 | 0.9 | 3.5 | 0.00 | 0.00 | 0.00 | 76 | 1011.6 |
| 20260502061629 | 54 | 0 | 2.6 | 7.8 | 0.00 | 0.00 | 0.00 | 69 | 1011.7 |
| 20260502061557 | 51 | 355 | 1.7 | 4.3 | 0.00 | 0.00 | 0.00 | 82 | 1011.8 |
| 20260502061525 | 53 | 57 | 0.0 | 1.7 | 0.00 | 0.00 | 0.00 | 74 | 1011.7 |
| 20260502061431 | 52 | 355 | 0.9 | 3.5 | 0.00 | 0.00 | 0.00 | 76 | 1011.7 |
| 20260502061135 | 54 | 39 | 2.6 | 7.8 | 0.00 | 0.00 | 0.00 | 69 | 1011.7 |
| 20260502060659 | 54 | 350 | 2.6 | 7.8 | 0.00 | 0.00 | 0.00 | 69 | 1011.7 |
| 20260502060312 | 51 | 0 | 1.7 | 4.3 | 0.00 | 0.00 | 0.00 | 79 | 1011.7 |
| 20260502060112 | 54 | 300 | 2.6 | 7.8 | 0.00 | 0.00 | 0.00 | 70 | 1011.8 |
| 20260502055624 | 53 | 292 | 2.6 | 7.0 | 0.00 | 0.00 | 0.00 | 70 | 1011.9 |
| 20260502055137 | 53 | 306 | 2.6 | 7.0 | 0.00 | 0.00 | 0.00 | 71 | 1011.9 |
| 20260502054652 | 53 | 342 | 1.7 | 4.3 | 0.00 | 0.00 | 0.00 | 71 | 1011.8 |
| 20260502054415 | 51 | 348 | 0.9 | 4.3 | 0.00 | 0.00 | 0.00 | 82 | 1011.8 |
| 20260502054109 | 53 | 347 | 1.7 | 6.1 | 0.00 | 0.00 | 0.00 | 72 | 1011.8 |
| 20260502053632 | 53 | 0 | 0.9 | 6.1 | 0.00 | 0.00 | 0.00 | 72 | 1011.8 |
| 20260502053157 | 53 | 323 | 0.9 | 1.7 | 0.00 | 0.00 | 0.00 | 73 | 1011.9 |
| 20260502052716 | 53 | 36 | 0.0 | 1.7 | 0.00 | 0.00 | 0.00 | 74 | 1011.7 |
| 20260502051702 | 52 | 67 | 0.9 | 3.5 | 0.00 | 0.00 | 0.00 | 75 | 1011.7 |
| 20260502050123 | 51 | 342 | 0.9 | 4.3 | 0.00 | 0.00 | 0.00 | 78 | 1011.6 |
| 20260502045056 | 51 | 350 | 1.7 | 4.3 | 0.00 | 0.00 | 0.00 | 81 | 1011.7 |
| 20260502043432 | 51 | 9 | 0.9 | 2.6 | 0.00 | 0.00 | 0.00 | 82 | 1011.8 |
| 20260502042926 | 51 | 326 | 0.0 | 2.6 | 0.00 | 0.00 | 0.00 | 82 | 1011.8 |
| 20260502042823 | 51 | 17 | 0.9 | 3.5 | 0.00 | 0.00 | 0.00 | 82 | 1011.9 |
| 20260502042441 | 51 | 17 | 0.9 | 3.5 | 0.00 | 0.00 | 0.00 | 82 | 1011.8 |
| 20260502041403 | 51 | 122 | 0.9 | 1.7 | 0.00 | 0.00 | 0.00 | 82 | 1011.9 |
| 20260502041041 | 51 | 5 | 2.6 | 5.2 | 0.00 | 0.00 | 0.00 | 82 | 1012.1 |
| 20260502040909 | 51 | 92 | 1.7 | 6.1 | 0.00 | 0.00 | 0.00 | 82 | 1011.9 |
| 20260502040428 | 51 | 13 | 2.6 | 6.1 | 0.00 | 0.00 | 0.00 | 82 | 1011.9 |
| 20260502035341 | 51 | 11 | 0.9 | 4.3 | 0.00 | 0.00 | 0.00 | 82 | 1011.9 |
| 20260502034850 | 51 | 15 | 0.9 | 2.6 | 0.00 | 0.00 | 0.00 | 82 | 1011.7 |
| 20260502034344 | 51 | 26 | 0.9 | 2.6 | 0.00 | 0.00 | 0.00 | 82 | 1011.7 |
| 20260502033844 | 51 | 32 | 0.9 | 2.6 | 0.00 | 0.00 | 0.00 | 81 | 1011.7 |
| 20260502033343 | 52 | 145 | 0.0 | 0.9 | 0.00 | 0.00 | 0.00 | 81 | 1011.6 |
| 20260502032847 | 52 | 145 | 0.0 | 0.0 | 0.00 | 0.00 | 0.00 | 81 | 1011.6 |
| 20260502032341 | 52 | 145 | 0.0 | 0.0 | 0.00 | 0.00 | 0.00 | 81 | 1011.7 |
| 20260502031843 | 52 | 145 | 0.0 | 0.0 | 0.00 | 0.00 | 0.00 | 80 | 1011.8 |
| 20260502031342 | 52 | 145 | 0.0 | 0.0 | 0.00 | 0.00 | 0.00 | 80 | 1011.7 |
| 20260502030844 | 53 | 145 | 0.0 | 0.0 | 0.00 | 0.00 | 0.00 | 79 | 1011.8 |
| 20260502030342 | 53 | 145 | 0.0 | 0.0 | 0.00 | 0.00 | 0.00 | 79 | 1011.8 |
| 20260502025841 | 53 | 145 | 0.0 | 0.9 | 0.00 | 0.00 | 0.00 | 79 | 1011.7 |
| 20260502025339 | 53 | 145 | 0.0 | 0.9 | 0.00 | 0.00 | 0.00 | 79 | 1011.6 |
| 20260502024843 | 53 | 180 | 0.0 | 0.0 | 0.00 | 0.00 | 0.00 | 78 | 1011.6 |
| 20260502024342 | 54 | 180 | 0.0 | 0.0 | 0.00 | 0.00 | 0.00 | 77 | 1011.7 |
| 20260502023843 | 54 | 180 | 0.0 | 0.0 | 0.00 | 0.00 | 0.00 | 77 | 1011.7 |
| 20260502023333 | 54 | 180 | 0.0 | 0.0 | 0.00 | 0.00 | 0.00 | 76 | 1011.6 |
| 20260502022829 | 55 | 180 | 0.0 | 0.9 | 0.00 | 0.00 | 0.00 | 77 | 1011.6 |
| 20260502022328 | 55 | 180 | 0.0 | 0.9 | 0.00 | 0.00 | 0.00 | 76 | 1011.6 |